Shungnak AP, Shungnak, AK, AK

12:45 PM AKST on December 09, 2019 (GMT -0900)
Shungnak AP, Shungnak, AK

Weather History for PAGH - November, 2019

Change the Weather History Date:

Sunday, November 17, 2019

  Actual Average (PAFM) Record (PAFM)
Temperature  
Mean Temperature -14 °F -  
Max Temperature -11 °F 13 °F 33 °F (1996)
Min Temperature -18 °F 5 °F -35 °F (1991)
Degree Days  
Heating Degree Days 80    
Moisture  
Dew Point -21 °F    
Average Humidity 78    
Maximum Humidity 82    
Minimum Humidity 74    
Precipitation  
Precipitation 0.00 in - - ()
Sea Level Pressure  
Sea Level Pressure 29.80 in    
Wind  
Wind Speed 4 mph (East)    
Max Wind Speed 8 mph    
Max Gust Speed -    
Visibility 10 miles    
Events      
Averages and records for this station are not official NWS values.
T = Trace of Precipitation, MM = Missing Value Source: NWS Daily Summary

Daily Weather History Graph

Daily Weather History Graph

Search for Another Location

Airport or City:

Astronomy

Nov. 17, 2019 Rise Set
Actual Time 10:35 AM AKST 3:51 PM AKST
Civil Twilight 9:20 AM AKST 5:05 PM AKST
Nautical Twilight 8:10 AM AKST 6:15 PM AKST
Astronomical Twilight 7:07 AM AKST 7:18 PM AKST
Moon 7:44 PM AKST (11/17) 4:30 PM AKST (11/17)
Length of Visible Light 7h 44m
Length of Day
5h 16m
Waning Gibbous, 72% of the Moon is Illuminated
Nov 17
Waning Gibbous
Nov 19
Last Quarter
Nov 26
New
Dec 3
First Quarter
Dec 11
Full

Hourly Weather History & Observations

Time (AKST) Temp. Windchill Dew Point Humidity Pressure Visibility Wind Dir Wind Speed Gust Speed Precip Events Conditions
12:56 AM -18.0 °F -33.0 °F -22.0 °F 82% 29.74 in 10.0 mi ESE 5.8 mph - N/A   Clear
1:56 AM -18.0 °F -28.5 °F -22.0 °F 82% 29.74 in 10.0 mi East 3.5 mph - N/A   Clear
2:56 AM -17.0 °F - -22.0 °F 78% 29.74 in 10.0 mi Calm Calm - N/A   Clear
3:56 AM -17.0 °F -31.7 °F -22.0 °F 78% 29.73 in 10.0 mi SE 5.8 mph - N/A   Clear
4:56 AM -17.0 °F -31.7 °F -22.0 °F 78% 29.73 in 10.0 mi East 5.8 mph - N/A   Clear
5:56 AM -18.0 °F -36.1 °F -23.1 °F 78% 29.75 in 10.0 mi ESE 8.1 mph - N/A   Clear
6:56 AM -18.0 °F -30.9 °F -22.0 °F 82% 29.74 in 10.0 mi East 4.6 mph - N/A   Clear
7:56 AM -18.9 °F -29.5 °F -24.0 °F 78% 29.75 in 10.0 mi East 3.5 mph - N/A   Clear
8:56 AM -18.9 °F -32.0 °F -24.0 °F 78% 29.75 in 10.0 mi East 4.6 mph - N/A   Clear
10:56 AM -17.0 °F -33.4 °F -22.0 °F 78% 29.77 in 10.0 mi ESE 6.9 mph - N/A   Clear
11:56 AM -15.0 °F - -20.0 °F 78% 29.78 in 10.0 mi Calm Calm - N/A   Clear
12:56 PM -11.0 °F - -16.1 °F 78% 29.79 in 10.0 mi Calm Calm - N/A   Clear
1:56 PM -11.0 °F -22.8 °F -17.0 °F 75% 29.79 in 10.0 mi ESE 4.6 mph - N/A   Clear
2:56 PM -11.0 °F - -17.0 °F 75% 29.81 in 10.0 mi Calm Calm - N/A   Clear
3:56 PM -14.1 °F - -20.0 °F 75% 29.82 in 10.0 mi Calm Calm - N/A   Clear
4:56 PM -15.0 °F - -20.0 °F 78% 29.83 in 10.0 mi Calm Calm - N/A   Clear
5:56 PM -16.1 °F -26.2 °F -20.9 °F 79% 29.84 in 8.0 mi East 3.5 mph - N/A   Clear
6:56 PM -16.1 °F -26.2 °F -20.9 °F 79% 29.86 in 10.0 mi ENE 3.5 mph - N/A   Clear
7:56 PM -16.1 °F -28.6 °F -20.0 °F 82% 29.87 in 9.0 mi East 4.6 mph - N/A   Clear
8:56 PM -18.0 °F - -23.1 °F 78% 29.88 in 10.0 mi Calm Calm - N/A   Clear
9:56 PM -18.0 °F - -23.1 °F 78% 29.90 in 10.0 mi Calm Calm - N/A   Clear
10:56 PM -18.0 °F - -22.0 °F 82% 29.91 in 10.0 mi Calm Calm - N/A   Clear
11:56 PM -17.0 °F - -23.1 °F 74% 29.93 in 10.0 mi Calm Calm - N/A   Clear